mailman.amsat.org
Sign In
Sign Up
Sign In
Sign Up
Manage this list
×
Keyboard Shortcuts
Thread View
j
: Next unread message
k
: Previous unread message
j a
: Jump to all threads
j l
: Jump to MailingList overview
2022
June
May
April
March
February
January
2021
December
November
October
September
August
July
June
May
April
March
February
January
2020
December
November
October
September
August
July
June
May
April
March
February
January
2019
December
November
October
September
August
July
June
May
April
March
February
January
2018
December
November
October
September
August
July
June
May
April
March
February
January
2017
December
November
October
September
August
July
June
May
April
March
February
January
2016
December
November
October
September
August
July
June
May
April
March
February
January
2015
December
November
October
September
August
July
June
May
April
March
February
January
2014
December
November
October
September
August
July
June
May
April
March
February
January
2013
December
November
October
September
August
July
June
May
April
March
February
January
2012
December
November
October
September
August
July
June
May
April
March
February
January
2011
December
November
October
September
August
July
June
May
April
March
February
January
2010
December
November
October
September
August
July
June
May
April
March
February
January
2009
December
November
October
September
August
July
June
May
April
March
February
January
2008
December
November
October
September
August
July
June
May
April
March
February
January
2007
December
November
October
September
August
July
June
May
April
March
February
January
2006
December
November
October
September
List overview
Download
Keps
December 2007
----- 2022 -----
June 2022
May 2022
April 2022
March 2022
February 2022
January 2022
----- 2021 -----
December 2021
November 2021
October 2021
September 2021
August 2021
July 2021
June 2021
May 2021
April 2021
March 2021
February 2021
January 2021
----- 2020 -----
December 2020
November 2020
October 2020
September 2020
August 2020
July 2020
June 2020
May 2020
April 2020
March 2020
February 2020
January 2020
----- 2019 -----
December 2019
November 2019
October 2019
September 2019
August 2019
July 2019
June 2019
May 2019
April 2019
March 2019
February 2019
January 2019
----- 2018 -----
December 2018
November 2018
October 2018
September 2018
August 2018
July 2018
June 2018
May 2018
April 2018
March 2018
February 2018
January 2018
----- 2017 -----
December 2017
November 2017
October 2017
September 2017
August 2017
July 2017
June 2017
May 2017
April 2017
March 2017
February 2017
January 2017
----- 2016 -----
December 2016
November 2016
October 2016
September 2016
August 2016
July 2016
June 2016
May 2016
April 2016
March 2016
February 2016
January 2016
----- 2015 -----
December 2015
November 2015
October 2015
September 2015
August 2015
July 2015
June 2015
May 2015
April 2015
March 2015
February 2015
January 2015
----- 2014 -----
December 2014
November 2014
October 2014
September 2014
August 2014
July 2014
June 2014
May 2014
April 2014
March 2014
February 2014
January 2014
----- 2013 -----
December 2013
November 2013
October 2013
September 2013
August 2013
July 2013
June 2013
May 2013
April 2013
March 2013
February 2013
January 2013
----- 2012 -----
December 2012
November 2012
October 2012
September 2012
August 2012
July 2012
June 2012
May 2012
April 2012
March 2012
February 2012
January 2012
----- 2011 -----
December 2011
November 2011
October 2011
September 2011
August 2011
July 2011
June 2011
May 2011
April 2011
March 2011
February 2011
January 2011
----- 2010 -----
December 2010
November 2010
October 2010
September 2010
August 2010
July 2010
June 2010
May 2010
April 2010
March 2010
February 2010
January 2010
----- 2009 -----
December 2009
November 2009
October 2009
September 2009
August 2009
July 2009
June 2009
May 2009
April 2009
March 2009
February 2009
January 2009
----- 2008 -----
December 2008
November 2008
October 2008
September 2008
August 2008
July 2008
June 2008
May 2008
April 2008
March 2008
February 2008
January 2008
----- 2007 -----
December 2007
November 2007
October 2007
September 2007
August 2007
July 2007
June 2007
May 2007
April 2007
March 2007
February 2007
January 2007
----- 2006 -----
December 2006
November 2006
October 2006
September 2006
[email protected]
1 participants
11 discussions
Start a n
N
ew thread
orb07340.amsat
by Ray Hoad
SB KEPS @ AMSAT $ORB07340.O Orbital Elements 07340.OSCAR HR AMSAT ORBITAL ELEMENTS FOR OSCAR SATELLITES FROM WA5QGD FORT WORTH,TX December 6, 2007 Send Subscribe/unsubscribe to KEPS at
http://www.amsat.org/mailman/listinfo/keps
BID: ORB07340.O TO ALL RADIO AMATEURS BT Satellite: PO-63 Catalog number: 29712 Epoch time: 07340.80305040 Element set: 978 Inclination: 097.9030 deg RA of node: 037.3986 deg Eccentricity: 0.0013090 Arg of perigee: 291.3278 deg Mean anomaly: 068.6538 deg Mean motion: 14.79926443 rev/day Decay rate: 5.25e-06 rev/day^2 Epoch rev: 4886 Checksum: 330 Satellite: PO-63 Catalog number: 29712 Epoch time: 07340.80305040 Element set: 978 Inclination: 097.9030 deg RA of node: 037.3986 deg Eccentricity: 0.0013090 Arg of perigee: 291.3278 deg Mean anomaly: 068.6538 deg Mean motion: 14.79926443 rev/day Decay rate: 5.25e-06 rev/day^2 Epoch rev: 4886 Checksum: 330 Satellite: PO-63 Catalog number: 29712 Epoch time: 07340.80305040 Element set: 978 Inclination: 097.9030 deg RA of node: 037.3986 deg Eccentricity: 0.0013090 Arg of perigee: 291.3278 deg Mean anomaly: 068.6538 deg Mean motion: 14.79926443 rev/day Decay rate: 5.25e-06 rev/day^2 Epoch rev: 4886 Checksum: 330 Satellite: VO-52 Catalog number: 28650 Epoch time: 07339.81352247 Element set: 0796 Inclination: 097.8149 deg RA of node: 046.5208 deg Eccentricity: 0.0028177 Arg of perigee: 055.9457 deg Mean anomaly: 304.4442 deg Mean motion: 14.81389725 rev/day Decay rate: -8.0e-07 rev/day^2 Epoch rev: 13982 Checksum: 339 Satellite: AO-40 Catalog number: 26609 Epoch time: 07339.52928811 Element set: 0977 Inclination: 007.0899 deg RA of node: 108.3144 deg Eccentricity: 0.7931918 Arg of perigee: 029.3281 deg Mean anomaly: 357.6125 deg Mean motion: 01.25583743 rev/day Decay rate: -9.9e-07 rev/day^2 Epoch rev: 03259 Checksum: 341 Satellite: SO-33 Catalog number: 25509 Epoch time: 07339.38181839 Element set: 0079 Inclination: 031.4303 deg RA of node: 337.8079 deg Eccentricity: 0.0354885 Arg of perigee: 124.0785 deg Mean anomaly: 239.4047 deg Mean motion: 14.28188241 rev/day Decay rate: 1.51e-06 rev/day^2 Epoch rev: 47574 Checksum: 329 Satellite: FO-29 Catalog number: 24278 Epoch time: 07339.92228057 Element set: 0662 Inclination: 098.5762 deg RA of node: 276.6821 deg Eccentricity: 0.0350921 Arg of perigee: 358.5717 deg Mean anomaly: 001.4390 deg Mean motion: 13.52935166 rev/day Decay rate: 2.8e-07 rev/day^2 Epoch rev: 55812 Checksum: 330 Satellite: RS-15 Catalog number: 23439 Epoch time: 07339.77874587 Element set: 0101 Inclination: 064.8139 deg RA of node: 089.4236 deg Eccentricity: 0.0154104 Arg of perigee: 159.6126 deg Mean anomaly: 201.1036 deg Mean motion: 11.27552839 rev/day Decay rate: -3.9e-07 rev/day^2 Epoch rev: 53304 Checksum: 307 Satellite: UO-11 Catalog number: 14781 Epoch time: 07340.64118777 Element set: 538 Inclination: 098.1767 deg RA of node: 006.5476 deg Eccentricity: 0.0009017 Arg of perigee: 343.7917 deg Mean anomaly: 016.3032 deg Mean motion: 14.79598807 rev/day Decay rate: 5.7e-07 rev/day^2 Epoch rev: 27523 Checksum: 326 Satellite: AO-10 Catalog number: 14129 Epoch time: 07338.04898995 Element set: 449 Inclination: 025.9721 deg RA of node: 242.7356 deg Eccentricity: 0.6047754 Arg of perigee: 078.4945 deg Mean anomaly: 339.9606 deg Mean motion: 02.05869203 rev/day Decay rate: 2.6e-07 rev/day^2 Epoch rev: 18406 Checksum: 342 Satellite: AO-07 Catalog number: 07530 Epoch time: 07340.12444734 Element set: 45 Inclination: 101.4932 deg RA of node: 012.9327 deg Eccentricity: 0.0011826 Arg of perigee: 281.0795 deg Mean anomaly: 078.8946 deg Mean motion: 12.53573003 rev/day Decay rate: -2.8e-07 rev/day^2 Epoch rev: 51266 Checksum: 281 /EX SB KEPS @ AMSAT $ORB07340.D Orbital Elements 07340.MICROS HR AMSAT ORBITAL ELEMENTS FOR THE MICROSATS FROM WA5QGD FORT WORTH,TX December 6, 2007 Send Subscribe/unsubscribe to KEPS at
http://www.amsat.org/mailman/listinfo/keps
